This is the latest recevied weather packets stored in our database for station/object N4NVD-13. If no packets are shown the sender has not sent any weather packets the latest 10 day(s).
| Time | Temp. | Humidity | Pressure | Rain* | Wind** | Luminosity | Snow |
|---|---|---|---|---|---|---|---|
| 1777480064 | 26.11° C | 94% | 1012.3 hPa | 0 mm | - | 88 W/m² | - |
| 1777479761 | 26.11° C | 93% | 1012.2 hPa | 0 mm | - | 77 W/m² | - |
| 1777479459 | 26.11° C | 94% | 1012.5 hPa | 0 mm | - | 67 W/m² | - |
| 1777479155 | 26.11° C | 94% | 1012.4 hPa | 0 mm | - | 53 W/m² | - |
| 1777478852 | 26.11° C | 94% | 1012.3 hPa | 0 mm | - | 59 W/m² | - |
| 1777478548 | 25.56° C | 95% | 1012 hPa | 0 mm | - | 66 W/m² | - |
| 1777478246 | 26.11° C | 94% | 1012.1 hPa | 0 mm | - | 82 W/m² | - |
| 1777477942 | 25.56° C | 94% | 1012 hPa | 0 mm | - | 89 W/m² | - |
| 1777477637 | 25.56° C | 94% | 1011.8 hPa | 0 mm | - | 77 W/m² | - |
| 1777477334 | 26.11° C | 95% | 1011.8 hPa | 0 mm | - | 75 W/m² | - |
| 1777477031 | 25.56° C | 95% | 1011.8 hPa | 0 mm | - | 87 W/m² | - |
| 1777476729 | 26.11° C | 95% | 1011.9 hPa | 0 mm | - | 70 W/m² | - |
| 1777476425 | 26.11° C | 95% | 1012 hPa | 0 mm | - | 93 W/m² | - |
| 1777476121 | 26.11° C | 94% | 1012.1 hPa | 0 mm | - | 94 W/m² | - |
| 1777475817 | 25.56° C | 95% | 1012 hPa | 0 mm | - | 117 W/m² | - |
| 1777475513 | 25.56° C | 95% | 1012.1 hPa | 0 mm | - | 95 W/m² | - |
| 1777475210 | 25.56° C | 95% | 1011.8 hPa | 0 mm | - | 64 W/m² | - |
| 1777474905 | 25.56° C | 95% | 1011.8 hPa | 0 mm | - | 46 W/m² | - |
| 1777474601 | 25.56° C | 95% | 1011.9 hPa | 0 mm | - | 55 W/m² | - |
| 1777474298 | 25.56° C | 95% | 1011.8 hPa | 0 mm | - | 61 W/m² | - |
| 1777473994 | 25.56° C | 95% | 1011.4 hPa | 0 mm | - | 76 W/m² | - |
| 1777473693 | 26.11° C | 95% | 1011.6 hPa | 0 mm | - | 92 W/m² | - |
| 1777473388 | 25.56° C | 96% | 1011.3 hPa | 0 mm | - | 95 W/m² | - |
| 1777473085 | 25.56° C | 96% | 1011.5 hPa | 0 mm | - | 81 W/m² | - |
| 1777472781 | 25.56° C | 96% | 1011.4 hPa | 0 mm | - | 57 W/m² | - |
* Rain latest hour (hover to see other rain measurements)
** Current wind speed in m/s (hover to see current wind gust speed)